Weather History for West Palm Beach, FL

Change the Weather History Date:

Wednesday, December 18, 2013

  Actual Average Record
Temperature  
Mean Temperature 67 °F 68 °F  
Max Temperature 76 °F 76 °F 86 °F (1989)
Min Temperature 58 °F 60 °F 37 °F (1973)
Degree Days  
Heating Degree Days 0 2  
Month to date heating degree days 0 26  
Since 1 July heating degree days 4 38  
Cooling Degree Days 2 5  
Month to date cooling degree days 154 99  
Year to date cooling degree days 4355 3965  
Growing Degree Days 16 (Base 50)    
Moisture  
Dew Point 55 °F    
Average Humidity 68    
Maximum Humidity 90    
Minimum Humidity 46    
Precipitation  
Precipitation 0.00 in 0.11 in 1.91 in (2009)
Month to date precipitation 4.18 1.92  
Year to date precipitation 64.82 60.87  
Snow  
Snow 0.00 in - - ()
Month to date snowfall 0.0  
Since 1 July snowfall 0.0  
Snow Depth 0.00 in    
Sea Level Pressure  
Sea Level Pressure 30.20 in    
Wind  
Wind Speed 9 mph (NNW)    
Max Wind Speed 17 mph    
Max Gust Speed 22 mph    
Visibility 10 miles    
Events      
T = Trace of Precipitation, MM = Missing Value Source: NWS Daily Summary

Daily Weather History Graph

Daily Weather History Graph

Search for Another Location

Airport:

Trip Planner

Search our weather history database for the weather conditions in past years. The results will help you decide how hot, cold, wet, or windy it might be!

Date:

Astronomy

Dec. 18, 2013 Rise Set
Actual Time 7:03 AM EST 5:31 PM EST
Civil Twilight 6:37 AM EST 5:56 PM EST
Nautical Twilight 6:08 AM EST 6:25 PM EST
Astronomical Twilight 5:40 AM EST 6:54 PM EST
Moon 6:54 PM EST (12/18) 7:48 AM EST (12/18)
Length of Visible Light 11h 18m
Length of Day
10h 28m
Full, 98% of the Moon is Illuminated
Dec 18
Full
Dec 25
Last Quarter
Jan 1
New
Jan 7
First Quarter
Jan 15
Full

Hourly Weather History & Observations

Time (EST) Temp. Dew Point Humidity Pressure Visibility Wind Dir Wind Speed Gust Speed Precip Events Conditions
12:53 AM 60.1 °F 57.0 °F 90% 30.16 in 10.0 mi Calm Calm - N/A   Clear
1:53 AM 60.1 °F 57.0 °F 90% 30.15 in 10.0 mi NW 3.5 mph - N/A   Clear
2:53 AM 60.1 °F 57.0 °F 90% 30.15 in 10.0 mi NW 6.9 mph - N/A   Clear
3:53 AM 60.1 °F 57.0 °F 90% 30.16 in 10.0 mi NNW 6.9 mph - N/A   Clear
4:53 AM 60.1 °F 57.0 °F 90% 30.16 in 10.0 mi NNW 6.9 mph - N/A   Clear
5:53 AM 60.1 °F 57.0 °F 90% 30.18 in 10.0 mi NW 8.1 mph - N/A   Clear
6:53 AM 59.0 °F 55.9 °F 90% 30.20 in 10.0 mi NNW 5.8 mph - N/A   Partly Cloudy
7:53 AM 60.1 °F 55.0 °F 83% 30.22 in 10.0 mi NW 8.1 mph - N/A   Partly Cloudy
8:53 AM 64.9 °F 55.0 °F 70% 30.23 in 10.0 mi NNW 10.4 mph - N/A   Partly Cloudy
9:53 AM 70.0 °F 54.0 °F 57% 30.24 in 10.0 mi NNW 15.0 mph - N/A   Partly Cloudy
10:53 AM 72.0 °F 53.1 °F 51% 30.24 in 10.0 mi NNW 15.0 mph - N/A   Partly Cloudy
11:53 AM 73.9 °F 51.1 °F 45% 30.22 in 10.0 mi North 13.8 mph - N/A   Partly Cloudy
12:53 PM 75.0 °F 54.0 °F 48% 30.19 in 10.0 mi North 11.5 mph - N/A   Partly Cloudy
1:53 PM 75.0 °F 54.0 °F 48% 30.18 in 10.0 mi North 12.7 mph - N/A   Partly Cloudy
2:53 PM 75.0 °F 53.1 °F 46% 30.17 in 10.0 mi North 16.1 mph - N/A   Partly Cloudy
3:53 PM 73.9 °F 54.0 °F 50% 30.17 in 10.0 mi North 13.8 mph - N/A   Partly Cloudy
4:53 PM 72.0 °F 54.0 °F 53% 30.19 in 10.0 mi North 10.4 mph - N/A   Partly Cloudy
5:37 PM 69.8 °F 53.6 °F 56% 30.19 in 10.0 mi North 8.1 mph - N/A   Partly Cloudy
5:53 PM 69.1 °F 53.1 °F 57% 30.19 in 10.0 mi North 9.2 mph - N/A   Partly Cloudy
6:53 PM 66.0 °F 53.1 °F 63% 30.20 in 10.0 mi NNW 6.9 mph - N/A   Partly Cloudy
7:53 PM 63.0 °F 55.0 °F 75% 30.22 in 10.0 mi NNW 6.9 mph - N/A   Partly Cloudy
8:53 PM 63.0 °F 54.0 °F 72% 30.22 in 10.0 mi NW 4.6 mph - N/A   Scattered Clouds
9:53 PM 62.1 °F 55.0 °F 78% 30.23 in 10.0 mi NW 4.6 mph - N/A   Scattered Clouds
10:53 PM 61.0 °F 55.0 °F 81% 30.23 in 10.0 mi NNW 4.6 mph - N/A   Partly Cloudy
11:53 PM 60.1 °F 55.0 °F 83% 30.22 in 10.0 mi NW 4.6 mph - N/A   Scattered Clouds